Regional Weather Roundup
Issued by NWS

Home | Current Version | Previous Version | Text Only | Print | Product List | Glossary On
Versions: 1 2 3 4 5 6 7 8 9 10 11 12 13 14 15 16 17 18 19 20 21 22 23 24 25 26 27 28 29 30 31 32 33 34 35 36 37 38 39 40 41 42 43 44 45 46 47 48 49 50
000
ASUS46 KSTO 200315
RWRCA

NORTHERN AND CENTRAL CA REGIONAL WEATHER ROUNDUP
NATIONAL WEATHER SERVICE SACRAMENTO CA
700 PM PST SUN FEB 19 2017

NOTE: FAIR INDICATES FEW OR NO CLOUDS BELOW 12,000 FEET WITH NO
SIGNIFICANT WEATHER AND/OR OBSTRUCTIONS TO VISIBILITY.

CAZ001-003-200400-
NORTHWEST AREA

CITY           SKY/WX    TMP DP  RH WIND       PRES   REMARKS
CRESCENT CITY  LGT RAIN N/A N/A N/A S9        29.66F
UKIAH          CLOUDY    51  48  89 S13G22    29.79R
$$

CAZ006-505>513-200400-
BAY AREA

CITY           SKY/WX    TMP DP  RH WIND       PRES   REMARKS
SANTA ROSA     LGT RAIN  51  51 100 SE3       29.82R FOG
SAN RAFAEL     N/A       51  MM  MM MISG
NAPA           CLOUDY    54  50  86 E13       29.86R
CONCORD        CLOUDY    53  52  96 CALM      29.86R
OAKLAND CITY   N/A      MM  MM  MM MISG
OAKLAND        CLOUDY    56  50  80 SE21      29.86R
SAN FRAN CITY  N/A       55  MM  79 MISG
SAN FRAN ARPT  CLOUDY    56  49  77 S10       29.85R
LIVERMORE      CLOUDY    53  47  79 NE9       29.86R
HAYWARD        CLOUDY    56  45  66 S17G25    29.85R
REDWOOD CITY   N/A       55  MM  83 MISG
MOFFETT ARPT   CLOUDY    54  48  80 SE14      29.88R
SAN JOSE ARPT  CLOUDY    56  46  69 SE12G21   29.88R
$$
CAZ034-037-514>518-200400-
CENTRAL COAST

CITY           SKY/WX    TMP DP  RH WIND       PRES   REMARKS
WATSONVILLE    CLOUDY    54  50  86 CALM      29.90R
SALINAS        CLOUDY    53  45  74 E24       29.89R
MONTEREY       CLOUDY    55  48  77 CALM      29.88R
SAN LUIS OBISP LGT RAIN  53  49  86 SE9       30.00R FOG
SANTA MARIA    LGT RAIN  52  51  97 E7        30.01R
$$
CAZ015-016-200400-
NORTHERN SACRAMENTO VALLEY

CITY           SKY/WX    TMP DP  RH WIND       PRES   REMARKS
REDDING        CLOUDY    49  46  90 S33G44    29.79R
RED BLUFF      LGT RAIN  49  47  93 SE22G31   29.84R FOG
OROVILLE       CLOUDY    50  47  89 SE15      29.90R FOG
$$
CAZ016>018-200400-
SOUTHERN SACRAMENTO VALLEY

CITY           SKY/WX    TMP DP  RH WIND       PRES   REMARKS
AUBURN         CLOUDY    48  46  93 SE14G21   29.88S
BEALE AFB      CLOUDY    51  46  85 SE14      29.87S
LINCOLN        CLOUDY    52  43  71 SE15      29.87S
MARYSVILLE     CLOUDY    52  46  80 S17G24    29.89R
SAC INTL ARPT  CLOUDY    52  47  83 S21G33    29.87S
MATHER AIRPORT NOT AVBL
DOWNTOWN SAC   N/A       52  MM  MM MISG
SAC EXEC ARPT  CLOUDY    52  46  80 SE9G20    29.89R
VACAVILLE      CLOUDY    51  51 100 S7        29.89R
TRAVIS AFB     CLOUDY    52  49  92 SE14      29.86R
$$
CAZ019>021-200400-
SAN JOAQUIN VALLEY

CITY           SKY/WX    TMP DP  RH WIND       PRES   REMARKS
STOCKTON       CLOUDY    53  47  79 SE20G26   29.90R
MODESTO        CLOUDY    54  43  66 SE10      29.92R
MERCED         CLOUDY    52  42  69 SE16      29.93S
LEMOORE        LGT RAIN  51  48  89 SE14      29.98S
FRESNO         LGT RAIN  51  46  83 SE12      29.98S
HANFORD        LGT RAIN  52  48  86 SE7       30.00R
PORTERVILLE    LGT RAIN  53  51  93 S5        30.02S
BAKERSFIELD    LGT RAIN  55  44  66 SE7       30.01R
$$
CAZ011-012-071-200400-
NORTHERN MOUNTAINS

CITY           SKY/WX    TMP DP  RH WIND       PRES   REMARKS
YREKA          MOCLDY    44  35  70 S17       29.67R
MOUNT SHASTA   LGT RAIN  38  36  92 E7        29.74R WCI  33
ALTURAS        CLOUDY    41  32  70 S13       29.74R
$$
CAZ011-012-071-200400-
SIERRA NEVADA MTNS

CITY           SKY/WX    TMP DP  RH WIND       PRES   REMARKS
BLUE CANYON    RAIN      36  36 100 S18G25    29.87R VSB 1/2 WCI  26
TRUCKEE        RAIN      36  32  87 SW13G23   29.84R WCI  27
TAHOE VLY ARPT LGT RAIN  36  34  92 VRB6      29.85R FOG     WCI  31
MAMMOTH LAKES  FAIR      33  30  89 E8        29.92R WCI  26
$$



USA.gov is the U.S. government's official web portal to all federal, state and local government web resources and services.